WAT109 FOOL-FBSK

Flight info

Callsign WAT109
Flight time 3h 57m
Altitude 37000
Route TAPIL1S TAPIL UR987 APEMI UY339 LIKAD UR526 VNA/N0463F390 UN187 UVAMO UT942 UTVIN UTVIN1D
Aircraft CL60/M-SBDE1E2E3FGHIJ1J4J5J7M3RWXYZ/LB1V1D1

Departure

Time 2026-05-06 14:24
Airport Libreville Leon M'ba International Airport (FOOL)

Arrival

Time 2026-05-06 18:22
Airport Sir Seretse Khama International Airport (FBSK)
Time Latitude Longitude Altitude Speed Heading
2026-05-06 14:20 0.46309 9.40944 55 ft 5 kts 64°
2026-05-06 14:20 0.46333 9.40976 56 ft 6 kts 28°
2026-05-06 14:21 0.46384 9.40969 56 ft 8 kts 333°
2026-05-06 14:21 0.46440 9.40940 57 ft 10 kts 338°
2026-05-06 14:21 0.46512 9.40909 57 ft 12 kts 334°
2026-05-06 14:21 0.46596 9.40870 58 ft 14 kts 334°
2026-05-06 14:22 0.46693 9.40823 57 ft 16 kts 334°
2026-05-06 14:22 0.46805 9.40770 56 ft 19 kts 334°
2026-05-06 14:22 0.46937 9.40706 55 ft 22 kts 335°
2026-05-06 14:22 0.47021 9.40639 55 ft 11 kts 281°
2026-05-06 14:23 0.47068 9.40621 55 ft 9 kts 53°
2026-05-06 14:23 0.47037 9.40659 55 ft 8 kts 154°
2026-05-06 14:23 0.47018 9.40669 55 ft 0 kts 154°
2026-05-06 14:23 0.47007 9.40674 55 ft 12 kts 154°
2026-05-06 14:24 0.46685 9.40828 58 ft 95 kts 154°
2026-05-06 14:24 0.45835 9.41233 102 ft 164 kts 156°
2026-05-06 14:24 0.44735 9.41773 618 ft 188 kts 154°
2026-05-06 14:24 0.43543 9.42331 1495 ft 195 kts 161°
2026-05-06 14:25 0.42201 9.42574 2377 ft 204 kts 181°
2026-05-06 14:25 0.40799 9.42315 3323 ft 215 kts 202°
2026-05-06 14:25 0.39551 9.41473 4293 ft 224 kts 229°
2026-05-06 14:25 0.38747 9.40129 5214 ft 233 kts 244°
2026-05-06 14:26 0.38014 9.38604 5747 ft 257 kts 244°
2026-05-06 14:26 0.37197 9.36917 5939 ft 278 kts 244°
2026-05-06 14:26 0.36351 9.35173 5957 ft 275 kts 244°
2026-05-06 14:26 0.35483 9.33474 5960 ft 273 kts 237°
2026-05-06 14:27 0.34196 9.32088 5965 ft 273 kts 214°
2026-05-06 14:27 0.32485 9.31301 5957 ft 270 kts 191°
2026-05-06 14:27 0.30577 9.31248 6175 ft 287 kts 166°
2026-05-06 14:27 0.28765 9.31981 7304 ft 281 kts 146°
2026-05-06 14:28 0.27162 9.33067 8426 ft 279 kts 141°
2026-05-06 14:28 0.25582 9.34170 9402 ft 281 kts 140°
2026-05-06 14:28 0.23976 9.35290 10289 ft 287 kts 140°
2026-05-06 14:28 0.22314 9.36450 11006 ft 299 kts 140°
2026-05-06 14:29 0.20543 9.37690 11351 ft 324 kts 140°
2026-05-06 14:29 0.18626 9.39028 12003 ft 337 kts 140°
2026-05-06 14:29 0.16709 9.40361 12801 ft 342 kts 140°
2026-05-06 14:29 0.14737 9.41728 13641 ft 345 kts 141°
2026-05-06 14:30 0.12621 9.42870 14392 ft 354 kts 151°
2026-05-06 14:30 0.10341 9.43905 15139 ft 358 kts 151°
2026-05-06 14:30 0.08090 9.44932 15886 ft 360 kts 152°
2026-05-06 14:30 0.05821 9.45968 16623 ft 362 kts 152°
2026-05-06 14:31 0.03509 9.47026 17291 ft 366 kts 152°
2026-05-06 14:31 0.01191 9.48086 17964 ft 369 kts 152°
2026-05-06 14:31 -0.01167 9.49164 18611 ft 372 kts 152°
2026-05-06 14:31 -0.03534 9.50248 19224 ft 375 kts 152°
2026-05-06 14:32 -0.05905 9.51334 19805 ft 378 kts 153°
2026-05-06 14:32 -0.08311 9.52436 20356 ft 382 kts 153°
2026-05-06 14:32 -0.10737 9.53548 20901 ft 385 kts 153°
2026-05-06 14:32 -0.13205 9.54678 21442 ft 388 kts 153°
2026-05-06 14:33 -0.15645 9.55797 21953 ft 391 kts 153°
2026-05-06 14:33 -0.18146 9.56943 22464 ft 394 kts 153°
2026-05-06 14:33 -0.20632 9.58083 22950 ft 398 kts 153°
2026-05-06 14:33 -0.23189 9.59256 23445 ft 401 kts 153°
2026-05-06 14:34 -0.25708 9.60412 23922 ft 405 kts 153°
2026-05-06 14:34 -0.28282 9.61592 24408 ft 408 kts 153°
2026-05-06 14:34 -0.30898 9.62792 24869 ft 411 kts 153°
2026-05-06 14:34 -0.33527 9.63998 25311 ft 415 kts 153°
2026-05-06 14:35 -0.36173 9.65212 25732 ft 418 kts 153°
2026-05-06 14:35 -0.38816 9.66425 26158 ft 421 kts 153°
2026-05-06 14:35 -0.41506 9.67659 26569 ft 424 kts 153°
2026-05-06 14:35 -0.44211 9.68900 26965 ft 427 kts 153°
2026-05-06 14:36 -0.46932 9.70149 27344 ft 431 kts 153°
2026-05-06 14:36 -0.49700 9.71419 27725 ft 434 kts 153°
2026-05-06 14:36 -0.52434 9.72674 28087 ft 436 kts 153°
2026-05-06 14:36 -0.55200 9.73944 28433 ft 440 kts 153°
2026-05-06 14:37 -0.58014 9.75235 28784 ft 443 kts 153°
2026-05-06 14:37 -0.60814 9.76520 29127 ft 446 kts 153°
2026-05-06 14:37 -0.63670 9.77831 29481 ft 448 kts 153°
2026-05-06 14:37 -0.66522 9.79140 29814 ft 450 kts 153°
2026-05-06 14:38 -0.69378 9.80451 30146 ft 453 kts 153°
2026-05-06 14:38 -0.72242 9.81766 30465 ft 455 kts 153°
2026-05-06 14:38 -0.75111 9.83082 30780 ft 457 kts 153°
2026-05-06 14:38 -0.78040 9.84427 31079 ft 459 kts 153°
2026-05-06 14:39 -0.80948 9.85772 31351 ft 461 kts 153°
2026-05-06 14:39 -0.83856 9.87122 31621 ft 463 kts 153°
2026-05-06 14:39 -0.86792 9.88486 31891 ft 465 kts 153°
2026-05-06 14:39 -0.89721 9.89846 32155 ft 466 kts 153°
2026-05-06 14:40 -0.92672 9.91216 32434 ft 466 kts 153°
2026-05-06 14:40 -0.95603 9.92576 33126 ft 458 kts 153°
2026-05-06 14:40 -0.98452 9.93897 34035 ft 445 kts 153°
2026-05-06 14:40 -1.01197 9.95171 34829 ft 435 kts 153°
2026-05-06 14:41 -1.03935 9.96442 35408 ft 429 kts 152°
2026-05-06 14:41 -1.06632 9.97694 35771 ft 428 kts 152°
2026-05-06 14:41 -1.09360 9.98962 36021 ft 429 kts 152°
2026-05-06 14:41 -1.12072 10.00222 36224 ft 430 kts 152°
2026-05-06 14:42 -1.14787 10.01483 36450 ft 431 kts 152°
2026-05-06 14:42 -1.17540 10.02763 36688 ft 431 kts 152°
2026-05-06 14:42 -1.20263 10.04027 36866 ft 433 kts 152°
2026-05-06 14:42 -1.22984 10.05296 36852 ft 436 kts 152°
2026-05-06 14:43 -1.28105 10.08537 36862 ft 433 kts 142°
2026-05-06 14:43 -1.32980 10.11995 36862 ft 430 kts 142°
2026-05-06 14:44 -1.37865 10.15457 36864 ft 429 kts 142°
2026-05-06 14:45 -1.45184 10.20642 36867 ft 429 kts 142°
2026-05-06 14:45 -1.50035 10.24079 36869 ft 429 kts 142°
2026-05-06 14:46 -1.54903 10.27526 36865 ft 428 kts 142°
2026-05-06 14:46 -1.59811 10.31003 36868 ft 432 kts 142°
2026-05-06 14:47 -1.64759 10.34509 36872 ft 442 kts 142°
2026-05-06 14:47 -1.69827 10.38099 36872 ft 451 kts 142°
2026-05-06 14:48 -1.75026 10.41782 36877 ft 459 kts 142°
2026-05-06 14:48 -1.80320 10.45383 36878 ft 468 kts 149°
2026-05-06 14:49 -1.86250 10.48234 36879 ft 473 kts 153°
2026-05-06 14:49 -1.92225 10.51031 36878 ft 474 kts 153°
2026-05-06 14:50 -1.98201 10.53830 36877 ft 473 kts 153°
2026-05-06 14:50 -2.04177 10.56598 36874 ft 473 kts 153°
2026-05-06 14:51 -2.10190 10.59358 36873 ft 473 kts 153°
2026-05-06 14:51 -2.16159 10.62100 36868 ft 472 kts 153°
2026-05-06 14:52 -2.22149 10.64852 36867 ft 472 kts 153°
2026-05-06 14:52 -2.28131 10.67601 36869 ft 472 kts 153°
2026-05-06 14:53 -2.34107 10.70347 36879 ft 472 kts 153°
2026-05-06 14:53 -2.40102 10.73103 36886 ft 472 kts 153°
2026-05-06 14:54 -2.46041 10.75834 36888 ft 472 kts 153°
2026-05-06 14:54 -2.52061 10.78602 36886 ft 472 kts 153°
2026-05-06 14:55 -2.58017 10.81341 36887 ft 472 kts 153°
2026-05-06 14:55 -2.63969 10.84079 36887 ft 471 kts 153°
2026-05-06 14:56 -2.69937 10.86824 36886 ft 471 kts 153°
2026-05-06 14:56 -2.75889 10.89563 36889 ft 471 kts 153°
2026-05-06 14:57 -2.81862 10.92311 36894 ft 471 kts 153°
2026-05-06 14:57 -2.87825 10.95055 36900 ft 471 kts 153°
2026-05-06 14:58 -2.93753 10.97874 36903 ft 470 kts 152°
2026-05-06 14:58 -2.99646 11.00711 36907 ft 469 kts 152°
2026-05-06 14:59 -3.05522 11.03540 36911 ft 468 kts 152°
2026-05-06 14:59 -3.11408 11.06374 36921 ft 469 kts 152°
2026-05-06 15:00 -3.17296 11.09209 36929 ft 469 kts 152°
2026-05-06 15:00 -3.23174 11.12039 36943 ft 470 kts 152°
2026-05-06 15:01 -3.29075 11.14881 36937 ft 470 kts 152°
2026-05-06 15:01 -3.34971 11.17720 36923 ft 469 kts 152°
2026-05-06 15:02 -3.40846 11.20550 36909 ft 468 kts 152°
2026-05-06 15:02 -3.46723 11.23380 36900 ft 468 kts 152°
2026-05-06 15:03 -3.52608 11.26215 36904 ft 468 kts 152°
2026-05-06 15:03 -3.58464 11.29037 36907 ft 468 kts 152°
2026-05-06 15:04 -3.64347 11.31871 36905 ft 468 kts 152°
2026-05-06 15:04 -3.70231 11.34707 36903 ft 468 kts 152°
2026-05-06 15:05 -3.76087 11.37530 36899 ft 467 kts 152°
2026-05-06 15:05 -3.81975 11.40368 36897 ft 467 kts 152°
2026-05-06 15:06 -3.87853 11.43199 36893 ft 467 kts 152°
2026-05-06 15:06 -3.93705 11.46018 36889 ft 467 kts 152°
2026-05-06 15:07 -3.99578 11.48847 36890 ft 467 kts 152°
2026-05-06 15:07 -4.05425 11.51665 36891 ft 466 kts 152°
2026-05-06 15:08 -4.11276 11.54485 36887 ft 466 kts 152°
2026-05-06 15:08 -4.17136 11.57309 36878 ft 466 kts 152°
2026-05-06 15:09 -4.23011 11.60141 36872 ft 466 kts 152°
2026-05-06 15:09 -4.28869 11.62944 36864 ft 466 kts 154°
2026-05-06 15:10 -4.35110 11.64838 36867 ft 470 kts 169°
2026-05-06 15:10 -4.41656 11.65425 36862 ft 472 kts 174°
2026-05-06 15:11 -4.48232 11.65872 36856 ft 472 kts 174°
2026-05-06 15:11 -4.54809 11.66322 36848 ft 472 kts 174°
2026-05-06 15:12 -4.61380 11.66771 36852 ft 471 kts 174°
2026-05-06 15:12 -4.67940 11.67220 36848 ft 471 kts 174°
2026-05-06 15:13 -4.74465 11.67668 36850 ft 471 kts 174°
2026-05-06 15:13 -4.81055 11.68120 36848 ft 471 kts 174°
2026-05-06 15:14 -4.87594 11.68569 36849 ft 471 kts 174°
2026-05-06 15:14 -4.94125 11.69017 36844 ft 471 kts 174°
2026-05-06 15:15 -5.00683 11.69468 36851 ft 471 kts 174°
2026-05-06 15:15 -5.07233 11.69918 36851 ft 470 kts 175°
2026-05-06 15:16 -5.13693 11.70980 36850 ft 467 kts 161°
2026-05-06 15:16 -5.19765 11.73335 36852 ft 466 kts 156°
2026-05-06 15:17 -5.25748 11.75800 36847 ft 466 kts 156°
2026-05-06 15:17 -5.31791 11.78291 36851 ft 466 kts 156°
2026-05-06 15:18 -5.37794 11.80766 36848 ft 465 kts 156°
2026-05-06 15:18 -5.43770 11.83230 36849 ft 465 kts 156°
2026-05-06 15:19 -5.49774 11.85706 36850 ft 465 kts 156°
2026-05-06 15:19 -5.55766 11.88178 36850 ft 466 kts 156°
2026-05-06 15:20 -5.61778 11.90659 36848 ft 466 kts 156°
2026-05-06 15:20 -5.67790 11.93139 36847 ft 465 kts 156°
2026-05-06 15:21 -5.73743 11.95597 36848 ft 464 kts 156°
2026-05-06 15:21 -5.79751 11.98078 36853 ft 464 kts 156°
2026-05-06 15:22 -5.85744 12.00553 36860 ft 465 kts 156°
2026-05-06 15:22 -5.91713 12.03019 36865 ft 465 kts 156°
2026-05-06 15:23 -5.97731 12.05505 36865 ft 465 kts 156°
2026-05-06 15:23 -6.03745 12.07991 36863 ft 465 kts 156°
2026-05-06 15:24 -6.09713 12.10458 36864 ft 465 kts 156°
2026-05-06 15:24 -6.15725 12.12944 36863 ft 464 kts 156°
2026-05-06 15:25 -6.21714 12.15420 36861 ft 464 kts 156°
2026-05-06 15:25 -6.27685 12.17891 36861 ft 464 kts 156°
2026-05-06 15:26 -6.33678 12.20370 36864 ft 465 kts 156°
2026-05-06 15:26 -6.39658 12.22845 36859 ft 465 kts 156°
2026-05-06 15:27 -6.45671 12.25334 36848 ft 465 kts 156°
2026-05-06 15:27 -6.51656 12.27813 36840 ft 465 kts 156°
2026-05-06 15:28 -6.57645 12.30293 36842 ft 466 kts 156°
2026-05-06 15:28 -6.63650 12.32782 36842 ft 466 kts 156°
2026-05-06 15:29 -6.69664 12.35274 36843 ft 467 kts 156°
2026-05-06 15:29 -6.75685 12.37770 36844 ft 468 kts 156°
2026-05-06 15:30 -6.81731 12.40276 36844 ft 469 kts 156°
2026-05-06 15:30 -6.87761 12.42777 36844 ft 470 kts 156°
2026-05-06 15:31 -6.93823 12.45292 36843 ft 470 kts 156°
2026-05-06 15:31 -6.99874 12.47803 36846 ft 471 kts 156°
2026-05-06 15:32 -7.08969 12.51575 36844 ft 472 kts 156°
2026-05-06 15:32 -7.15078 12.54109 36847 ft 472 kts 156°
2026-05-06 15:33 -7.21173 12.56638 36845 ft 472 kts 156°
2026-05-06 15:33 -7.27228 12.59152 36845 ft 472 kts 156°
2026-05-06 15:34 -7.33293 12.61670 36844 ft 472 kts 156°
2026-05-06 15:34 -7.39409 12.64210 36844 ft 472 kts 156°
2026-05-06 15:35 -7.45471 12.66729 36845 ft 471 kts 156°
2026-05-06 15:35 -7.51537 12.69249 36845 ft 471 kts 156°
2026-05-06 15:36 -7.57611 12.71774 36846 ft 471 kts 156°
2026-05-06 15:36 -7.63667 12.74292 36845 ft 471 kts 156°
2026-05-06 15:37 -7.69751 12.76823 36845 ft 471 kts 156°
2026-05-06 15:37 -7.75808 12.79343 36846 ft 471 kts 156°
2026-05-06 15:38 -7.81876 12.81869 36844 ft 471 kts 157°
2026-05-06 15:38 -7.87939 12.84393 36846 ft 470 kts 157°
2026-05-06 15:39 -7.94022 12.86926 36843 ft 470 kts 157°
2026-05-06 15:39 -8.00057 12.89440 36845 ft 470 kts 156°
2026-05-06 15:40 -8.06130 12.91971 36846 ft 471 kts 156°
2026-05-06 15:40 -8.12214 12.94507 36843 ft 471 kts 156°
2026-05-06 15:41 -8.18270 12.97033 36845 ft 470 kts 157°
2026-05-06 15:41 -8.24317 12.99555 36844 ft 470 kts 157°
2026-05-06 15:42 -8.30359 13.02076 36844 ft 469 kts 157°
2026-05-06 15:42 -8.36416 13.04604 36839 ft 469 kts 157°
2026-05-06 15:43 -8.42428 13.07114 36839 ft 469 kts 157°
2026-05-06 15:43 -8.48478 13.09641 36831 ft 470 kts 157°
2026-05-06 15:44 -8.54536 13.12172 36826 ft 469 kts 157°
2026-05-06 15:44 -8.60584 13.14700 36833 ft 469 kts 157°
2026-05-06 15:45 -8.66610 13.17219 36842 ft 469 kts 157°
2026-05-06 15:45 -8.72678 13.19757 36843 ft 469 kts 157°
2026-05-06 15:46 -8.78706 13.22279 36837 ft 469 kts 157°
2026-05-06 15:46 -8.84765 13.24775 36838 ft 469 kts 160°
2026-05-06 15:47 -8.91028 13.26647 36841 ft 468 kts 164°
2026-05-06 15:47 -8.97321 13.28472 36841 ft 469 kts 164°
2026-05-06 15:48 -9.03566 13.30285 36847 ft 468 kts 164°
2026-05-06 15:48 -9.09858 13.32114 36842 ft 469 kts 164°
2026-05-06 15:49 -9.16131 13.33940 36838 ft 469 kts 164°
2026-05-06 15:49 -9.22429 13.35775 36841 ft 469 kts 164°
2026-05-06 15:50 -9.28706 13.37605 36836 ft 469 kts 164°
2026-05-06 15:50 -9.34971 13.39433 36845 ft 469 kts 164°
2026-05-06 15:51 -9.41260 13.41269 36841 ft 469 kts 164°
2026-05-06 15:51 -9.47547 13.43105 36848 ft 470 kts 164°
2026-05-06 15:52 -9.53855 13.44948 36853 ft 470 kts 164°
2026-05-06 15:52 -9.60165 13.46792 36851 ft 471 kts 164°
2026-05-06 15:53 -9.66475 13.48638 36850 ft 470 kts 164°
2026-05-06 15:53 -9.72779 13.50482 36848 ft 470 kts 164°
2026-05-06 15:54 -9.79056 13.52320 36849 ft 470 kts 164°
2026-05-06 15:54 -9.85347 13.54162 36845 ft 469 kts 165°
2026-05-06 15:55 -9.91630 13.56003 36845 ft 470 kts 165°
2026-05-06 15:55 -9.97907 13.57842 36848 ft 470 kts 165°
2026-05-06 15:56 -10.04238 13.59699 36842 ft 471 kts 165°
2026-05-06 15:56 -10.10537 13.61546 36842 ft 471 kts 165°
2026-05-06 15:57 -10.16833 13.63400 36844 ft 471 kts 165°
2026-05-06 15:57 -10.23151 13.65266 36844 ft 471 kts 164°
2026-05-06 15:58 -10.29480 13.67137 36845 ft 471 kts 165°
2026-05-06 15:58 -10.35773 13.68998 36840 ft 472 kts 165°
2026-05-06 15:59 -10.42074 13.70861 36841 ft 472 kts 165°
2026-05-06 15:59 -10.48425 13.72741 36840 ft 472 kts 165°
2026-05-06 16:00 -10.54721 13.74605 36831 ft 472 kts 165°
2026-05-06 16:00 -10.61049 13.76479 36838 ft 472 kts 165°
2026-05-06 16:01 -10.67359 13.78349 36843 ft 472 kts 165°
2026-05-06 16:01 -10.73686 13.80313 36840 ft 474 kts 161°
2026-05-06 16:02 -10.79548 13.83396 36838 ft 476 kts 147°
2026-05-06 16:02 -10.84687 13.87634 36846 ft 477 kts 141°
2026-05-06 16:03 -10.89749 13.92024 36847 ft 477 kts 141°
2026-05-06 16:03 -10.94798 13.96406 36853 ft 477 kts 141°
2026-05-06 16:04 -10.99863 14.00804 36861 ft 478 kts 141°
2026-05-06 16:04 -11.04916 14.05195 36873 ft 478 kts 141°
2026-05-06 16:05 -11.09993 14.09610 36887 ft 478 kts 141°
2026-05-06 16:05 -11.15054 14.14014 36921 ft 478 kts 141°
2026-05-06 16:06 -11.20089 14.18397 36941 ft 478 kts 141°
2026-05-06 16:06 -11.25165 14.22818 37001 ft 478 kts 141°
2026-05-06 16:07 -11.30238 14.27239 37021 ft 480 kts 141°
2026-05-06 16:07 -11.35313 14.31664 37027 ft 480 kts 141°
2026-05-06 16:08 -11.40373 14.36078 37039 ft 480 kts 141°
2026-05-06 16:08 -11.45461 14.40519 37033 ft 480 kts 141°
2026-05-06 16:09 -11.50527 14.44943 37035 ft 480 kts 141°
2026-05-06 16:09 -11.55607 14.49381 37031 ft 480 kts 141°
2026-05-06 16:10 -11.60672 14.53809 37059 ft 480 kts 142°
2026-05-06 16:10 -11.65733 14.58235 37083 ft 480 kts 142°
2026-05-06 16:11 -11.70798 14.62667 37122 ft 480 kts 142°
2026-05-06 16:11 -11.75872 14.67110 37109 ft 480 kts 142°
2026-05-06 16:12 -11.80949 14.71557 37151 ft 480 kts 142°
2026-05-06 16:12 -11.85997 14.75980 37171 ft 480 kts 142°
2026-05-06 16:13 -11.91097 14.80453 37174 ft 480 kts 142°
2026-05-06 16:13 -11.96146 14.84882 37214 ft 479 kts 142°
2026-05-06 16:14 -12.01198 14.89317 37229 ft 479 kts 142°
2026-05-06 16:14 -12.06263 14.93765 37298 ft 479 kts 142°
2026-05-06 16:15 -12.08765 14.95964 37754 ft 474 kts 142°
2026-05-06 16:15 -12.11237 14.98139 38535 ft 463 kts 142°
2026-05-06 16:15 -12.13688 15.00296 39234 ft 456 kts 142°
2026-05-06 16:15 -12.16094 15.02411 39293 ft 461 kts 142°
2026-05-06 16:16 -12.21008 15.06730 39296 ft 470 kts 142°
2026-05-06 16:16 -12.26001 15.11122 39284 ft 477 kts 142°
2026-05-06 16:17 -12.31065 15.15581 39265 ft 480 kts 142°
2026-05-06 16:17 -12.36116 15.20033 39253 ft 479 kts 142°
2026-05-06 16:18 -12.41122 15.24447 39249 ft 477 kts 142°
2026-05-06 16:18 -12.46172 15.28901 39249 ft 477 kts 143°
2026-05-06 16:19 -12.51184 15.33324 39249 ft 477 kts 142°
2026-05-06 16:19 -12.56230 15.37779 39250 ft 477 kts 143°
2026-05-06 16:20 -12.61255 15.42218 39255 ft 478 kts 143°
2026-05-06 16:20 -12.66283 15.46662 39259 ft 479 kts 143°
2026-05-06 16:21 -12.71336 15.51131 39262 ft 479 kts 143°
2026-05-06 16:21 -12.76386 15.55600 39265 ft 479 kts 143°
2026-05-06 16:22 -12.81425 15.60061 39261 ft 480 kts 142°
2026-05-06 16:22 -12.86476 15.64536 39257 ft 481 kts 142°
2026-05-06 16:23 -12.91593 15.69072 39255 ft 482 kts 142°
2026-05-06 16:23 -12.96657 15.73564 39256 ft 483 kts 142°
2026-05-06 16:24 -13.01740 15.78075 39252 ft 483 kts 142°
2026-05-06 16:24 -13.06786 15.82555 39256 ft 482 kts 142°
2026-05-06 16:25 -13.11872 15.87075 39256 ft 481 kts 142°
2026-05-06 16:25 -13.16935 15.91576 39253 ft 481 kts 142°
2026-05-06 16:26 -13.21999 15.96080 39249 ft 481 kts 142°
2026-05-06 16:26 -13.27062 16.00587 39247 ft 482 kts 142°
2026-05-06 16:27 -13.32130 16.05099 39249 ft 482 kts 143°
2026-05-06 16:27 -13.37189 16.09607 39253 ft 483 kts 143°
2026-05-06 16:28 -13.42289 16.14154 39255 ft 484 kts 143°
2026-05-06 16:28 -13.47364 16.18681 39252 ft 483 kts 143°
2026-05-06 16:29 -13.52442 16.23214 39248 ft 484 kts 143°
2026-05-06 16:29 -13.57522 16.27751 39243 ft 484 kts 143°
2026-05-06 16:30 -13.60898 16.30768 39235 ft 485 kts 143°
2026-05-06 16:30 -13.67672 16.36824 39227 ft 485 kts 143°
2026-05-06 16:31 -13.72791 16.41405 39224 ft 485 kts 143°
2026-05-06 16:31 -13.77842 16.45960 39226 ft 485 kts 143°
2026-05-06 16:32 -13.82892 16.50571 39224 ft 484 kts 142°
2026-05-06 16:32 -13.87936 16.55177 39228 ft 484 kts 143°
2026-05-06 16:33 -13.92982 16.59789 39229 ft 485 kts 143°
2026-05-06 16:34 -14.00531 16.66692 39229 ft 485 kts 142°
2026-05-06 16:34 -14.05610 16.71340 39226 ft 485 kts 143°
2026-05-06 16:35 -14.10650 16.75954 39219 ft 485 kts 143°
2026-05-06 16:35 -14.15637 16.80524 39210 ft 484 kts 143°
2026-05-06 16:36 -14.20670 16.85137 39211 ft 485 kts 143°
2026-05-06 16:36 -14.25711 16.89761 39213 ft 485 kts 143°
2026-05-06 16:37 -14.30751 16.94387 39216 ft 486 kts 143°
2026-05-06 16:37 -14.35790 16.99014 39210 ft 486 kts 143°
2026-05-06 16:38 -14.40852 17.03666 39204 ft 486 kts 142°
2026-05-06 16:38 -14.45890 17.08299 39201 ft 485 kts 142°
2026-05-06 16:39 -14.50897 17.12907 39196 ft 484 kts 143°
2026-05-06 16:39 -14.55924 17.17534 39190 ft 485 kts 143°
2026-05-06 16:40 -14.60963 17.22176 39182 ft 485 kts 143°
2026-05-06 16:40 -14.66013 17.26830 39182 ft 486 kts 143°
2026-05-06 16:41 -14.71058 17.31483 39184 ft 486 kts 143°
2026-05-06 16:41 -14.76101 17.36138 39183 ft 486 kts 143°
2026-05-06 16:42 -14.81162 17.40813 39188 ft 486 kts 143°
2026-05-06 16:42 -14.86181 17.45451 39188 ft 487 kts 143°
2026-05-06 16:43 -14.91252 17.50141 39181 ft 487 kts 143°
2026-05-06 16:43 -14.96288 17.54801 39171 ft 487 kts 143°
2026-05-06 16:44 -15.01347 17.59485 39163 ft 487 kts 143°
2026-05-06 16:44 -15.06389 17.64156 39157 ft 488 kts 143°
2026-05-06 16:45 -15.11486 17.68883 39151 ft 487 kts 142°
2026-05-06 16:45 -15.16543 17.73573 39146 ft 488 kts 142°
2026-05-06 16:46 -15.21574 17.78245 39145 ft 488 kts 142°
2026-05-06 16:46 -15.26633 17.82944 39146 ft 488 kts 142°
2026-05-06 16:47 -15.31671 17.87627 39147 ft 488 kts 142°
2026-05-06 16:47 -15.36743 17.92346 39146 ft 488 kts 142°
2026-05-06 16:48 -15.41807 17.97058 39148 ft 489 kts 142°
2026-05-06 16:48 -15.46862 18.01766 39147 ft 489 kts 142°
2026-05-06 16:49 -15.51921 18.06481 39140 ft 490 kts 142°
2026-05-06 16:49 -15.57007 18.11225 39139 ft 489 kts 142°
2026-05-06 16:50 -15.62044 18.15926 39135 ft 489 kts 142°
2026-05-06 16:50 -15.67116 18.20662 39134 ft 490 kts 142°
2026-05-06 16:51 -15.72179 18.25394 39134 ft 490 kts 142°
2026-05-06 16:51 -15.77226 18.30115 39131 ft 490 kts 142°
2026-05-06 16:52 -15.82309 18.34872 39126 ft 490 kts 142°
2026-05-06 16:52 -15.87378 18.39619 39125 ft 490 kts 143°
2026-05-06 16:53 -15.92414 18.44340 39128 ft 489 kts 142°
2026-05-06 16:53 -15.97482 18.49093 39133 ft 489 kts 142°
2026-05-06 16:54 -16.02532 18.53832 39130 ft 490 kts 142°
2026-05-06 16:54 -16.07596 18.58588 39130 ft 490 kts 143°
2026-05-06 16:55 -16.12642 18.63330 39132 ft 491 kts 143°
2026-05-06 16:55 -16.17776 18.68159 39133 ft 491 kts 142°
2026-05-06 16:56 -16.22821 18.72908 39135 ft 491 kts 142°
2026-05-06 16:56 -16.27884 18.77677 39132 ft 490 kts 142°
2026-05-06 16:57 -16.32967 18.82468 39132 ft 491 kts 143°
2026-05-06 16:57 -16.38017 18.87231 39130 ft 492 kts 143°
2026-05-06 16:58 -16.43090 18.92019 39127 ft 492 kts 143°
2026-05-06 16:58 -16.48175 18.96823 39123 ft 492 kts 143°
2026-05-06 16:59 -16.53247 19.01617 39121 ft 492 kts 143°
2026-05-06 16:59 -16.58331 19.06427 39120 ft 493 kts 143°
2026-05-06 17:00 -16.63395 19.11220 39114 ft 493 kts 143°
2026-05-06 17:00 -16.68480 19.16038 39116 ft 494 kts 143°
2026-05-06 17:01 -16.73560 19.20853 39114 ft 494 kts 143°
2026-05-06 17:01 -16.78671 19.25702 39110 ft 494 kts 143°
2026-05-06 17:02 -16.83749 19.30525 39111 ft 493 kts 143°
2026-05-06 17:02 -16.88822 19.35346 39113 ft 493 kts 143°
2026-05-06 17:03 -16.93901 19.40174 39114 ft 494 kts 143°
2026-05-06 17:03 -16.98991 19.45018 39115 ft 495 kts 143°
2026-05-06 17:04 -17.04067 19.49851 39121 ft 496 kts 143°
2026-05-06 17:04 -17.09186 19.54730 39123 ft 497 kts 143°
2026-05-06 17:05 -17.14298 19.59606 39116 ft 497 kts 143°
2026-05-06 17:05 -17.19396 19.64473 39114 ft 496 kts 143°
2026-05-06 17:06 -17.24501 19.69349 39113 ft 496 kts 143°
2026-05-06 17:06 -17.29587 19.74212 39113 ft 496 kts 143°
2026-05-06 17:07 -17.34712 19.79115 39116 ft 497 kts 143°
2026-05-06 17:07 -17.39792 19.83978 39114 ft 498 kts 143°
2026-05-06 17:08 -17.44904 19.88876 39114 ft 499 kts 143°
2026-05-06 17:08 -17.50017 19.93779 39116 ft 499 kts 143°
2026-05-06 17:09 -17.55141 19.98697 39114 ft 499 kts 143°
2026-05-06 17:09 -17.60264 20.03618 39113 ft 499 kts 143°
2026-05-06 17:10 -17.65370 20.08527 39109 ft 498 kts 143°
2026-05-06 17:10 -17.70511 20.13473 39105 ft 499 kts 143°
2026-05-06 17:11 -17.75603 20.18375 39106 ft 499 kts 143°
2026-05-06 17:11 -17.80729 20.23314 39105 ft 500 kts 143°
2026-05-06 17:12 -17.85856 20.28258 39106 ft 501 kts 143°
2026-05-06 17:12 -17.91157 20.32987 39103 ft 497 kts 148°
2026-05-06 17:13 -17.96602 20.37497 39104 ft 498 kts 148°
2026-05-06 17:13 -18.02060 20.42029 39103 ft 498 kts 148°
2026-05-06 17:14 -18.07498 20.46550 39104 ft 499 kts 148°
2026-05-06 17:14 -18.12949 20.51088 39105 ft 499 kts 148°
2026-05-06 17:15 -18.18405 20.55636 39111 ft 499 kts 148°
2026-05-06 17:15 -18.23844 20.60173 39109 ft 499 kts 148°
2026-05-06 17:16 -18.29308 20.64736 39117 ft 499 kts 148°
2026-05-06 17:16 -18.34765 20.69299 39115 ft 499 kts 148°
2026-05-06 17:17 -18.40201 20.73846 39118 ft 500 kts 148°
2026-05-06 17:17 -18.45673 20.78429 39114 ft 500 kts 148°
2026-05-06 17:18 -18.51108 20.82985 39116 ft 500 kts 148°
2026-05-06 17:18 -18.56567 20.87565 39115 ft 501 kts 148°
2026-05-06 17:19 -18.62024 20.92148 39114 ft 501 kts 148°
2026-05-06 17:19 -18.67457 20.96714 39116 ft 501 kts 148°
2026-05-06 17:20 -18.72916 21.01307 39119 ft 501 kts 148°
2026-05-06 17:20 -18.78371 21.05902 39111 ft 501 kts 148°
2026-05-06 17:21 -18.83827 21.10502 39113 ft 502 kts 148°
2026-05-06 17:21 -18.89316 21.15134 39105 ft 502 kts 148°
2026-05-06 17:22 -18.94778 21.19747 39098 ft 502 kts 148°
2026-05-06 17:22 -19.00237 21.24362 39098 ft 503 kts 148°
2026-05-06 17:23 -19.05711 21.28993 39098 ft 503 kts 148°
2026-05-06 17:23 -19.11181 21.33625 39100 ft 503 kts 148°
2026-05-06 17:24 -19.16640 21.38252 39101 ft 503 kts 148°
2026-05-06 17:24 -19.22085 21.42871 39108 ft 503 kts 148°
2026-05-06 17:25 -19.27583 21.47539 39107 ft 503 kts 148°
2026-05-06 17:25 -19.33034 21.52171 39107 ft 503 kts 148°
2026-05-06 17:26 -19.38513 21.56832 39112 ft 503 kts 148°
2026-05-06 17:26 -19.43952 21.61463 39111 ft 504 kts 148°
2026-05-06 17:27 -19.49448 21.66146 39110 ft 504 kts 147°
2026-05-06 17:27 -19.54922 21.70844 39114 ft 504 kts 147°
2026-05-06 17:28 -19.60372 21.75530 39114 ft 504 kts 147°
2026-05-06 17:28 -19.65800 21.80202 39120 ft 504 kts 147°
2026-05-06 17:29 -19.71226 21.84876 39119 ft 503 kts 147°
2026-05-06 17:29 -19.76703 21.89572 39121 ft 503 kts 147°
2026-05-06 17:30 -19.82166 21.94204 39121 ft 503 kts 147°
2026-05-06 17:30 -19.87632 21.98844 39124 ft 503 kts 147°
2026-05-06 17:31 -19.93082 22.03476 39125 ft 503 kts 147°
2026-05-06 17:31 -19.98572 22.08144 39125 ft 503 kts 147°
2026-05-06 17:32 -20.04020 22.12783 39127 ft 503 kts 148°
2026-05-06 17:32 -20.09505 22.17458 39122 ft 503 kts 147°
2026-05-06 17:33 -20.14963 22.22114 39127 ft 503 kts 147°
2026-05-06 17:33 -20.20422 22.26776 39127 ft 503 kts 147°
2026-05-06 17:34 -20.25860 22.31424 39128 ft 502 kts 147°
2026-05-06 17:34 -20.31311 22.36087 39124 ft 502 kts 147°
2026-05-06 17:35 -20.36752 22.40746 39122 ft 502 kts 147°
2026-05-06 17:35 -20.42225 22.45434 39122 ft 503 kts 147°
2026-05-06 17:36 -20.50413 22.52444 39118 ft 503 kts 147°
2026-05-06 17:36 -20.55843 22.57100 39116 ft 503 kts 147°
2026-05-06 17:37 -20.61322 22.61801 39123 ft 503 kts 147°
2026-05-06 17:37 -20.66775 22.66484 39113 ft 503 kts 147°
2026-05-06 17:38 -20.72248 22.71191 39119 ft 503 kts 147°
2026-05-06 17:38 -20.77746 22.75922 39115 ft 504 kts 147°
2026-05-06 17:39 -20.83231 22.80648 39121 ft 504 kts 147°
2026-05-06 17:39 -20.88633 22.85348 39110 ft 504 kts 146°
2026-05-06 17:40 -20.94096 22.90113 39125 ft 504 kts 146°
2026-05-06 17:40 -20.99561 22.94884 39119 ft 504 kts 146°
2026-05-06 17:41 -21.04971 22.99612 39119 ft 504 kts 146°
2026-05-06 17:41 -21.10442 23.04398 39118 ft 505 kts 146°
2026-05-06 17:42 -21.15891 23.09170 39118 ft 504 kts 146°
2026-05-06 17:42 -21.21304 23.13914 39121 ft 504 kts 146°
2026-05-06 17:43 -21.26758 23.18699 39122 ft 505 kts 146°
2026-05-06 17:43 -21.32191 23.23468 39124 ft 506 kts 146°
2026-05-06 17:44 -21.37650 23.28264 39131 ft 506 kts 146°
2026-05-06 17:44 -21.43092 23.33050 39131 ft 506 kts 146°
2026-05-06 17:45 -21.48546 23.37852 39127 ft 506 kts 146°
2026-05-06 17:45 -21.54012 23.42668 39131 ft 506 kts 146°
2026-05-06 17:46 -21.59464 23.47478 39132 ft 506 kts 146°
2026-05-06 17:46 -21.64926 23.52300 39131 ft 507 kts 146°
2026-05-06 17:47 -21.70371 23.57114 39128 ft 508 kts 146°
2026-05-06 17:47 -21.75868 23.61978 39129 ft 508 kts 146°
2026-05-06 17:48 -21.81350 23.66833 39128 ft 508 kts 146°
2026-05-06 17:48 -21.86811 23.71676 39130 ft 508 kts 146°
2026-05-06 17:49 -21.92263 23.76515 39129 ft 508 kts 146°
2026-05-06 17:49 -21.97707 23.81352 39129 ft 509 kts 146°
2026-05-06 17:50 -22.03167 23.86208 39127 ft 510 kts 146°
2026-05-06 17:50 -22.08668 23.91106 39119 ft 510 kts 146°
2026-05-06 17:51 -22.14152 23.95994 39131 ft 511 kts 146°
2026-05-06 17:51 -22.19664 24.00912 39129 ft 511 kts 146°
2026-05-06 17:52 -22.25132 24.05797 39120 ft 511 kts 146°
2026-05-06 17:52 -22.30620 24.10705 39121 ft 511 kts 146°
2026-05-06 17:53 -22.36127 24.15634 39121 ft 511 kts 146°
2026-05-06 17:53 -22.41621 24.20556 39119 ft 512 kts 146°
2026-05-06 17:54 -22.47135 24.25503 39130 ft 513 kts 146°
2026-05-06 17:54 -22.52633 24.30440 39123 ft 514 kts 146°
2026-05-06 17:55 -22.58155 24.35404 39123 ft 514 kts 146°
2026-05-06 17:55 -22.63632 24.40333 39121 ft 514 kts 146°
2026-05-06 17:56 -22.69171 24.45324 39124 ft 515 kts 146°
2026-05-06 17:56 -22.74657 24.50272 39122 ft 515 kts 146°
2026-05-06 17:57 -22.80174 24.55272 39125 ft 516 kts 146°
2026-05-06 17:57 -22.85663 24.60254 39116 ft 516 kts 146°
2026-05-06 17:58 -22.91191 24.65276 39119 ft 516 kts 146°
2026-05-06 17:58 -22.96762 24.70343 39116 ft 516 kts 146°
2026-05-06 17:59 -22.99525 24.72856 38941 ft 520 kts 146°
2026-05-06 17:59 -23.02309 24.75390 38684 ft 522 kts 146°
2026-05-06 17:59 -23.05085 24.77921 38447 ft 521 kts 146°
2026-05-06 17:59 -23.07865 24.80455 38210 ft 521 kts 146°
2026-05-06 18:00 -23.10637 24.82985 37962 ft 521 kts 146°
2026-05-06 18:00 -23.13492 24.85591 37724 ft 521 kts 146°
2026-05-06 18:00 -23.16269 24.88127 37462 ft 522 kts 146°
2026-05-06 18:00 -23.19050 24.90668 37216 ft 522 kts 146°
2026-05-06 18:01 -23.21835 24.93213 36674 ft 526 kts 146°
2026-05-06 18:01 -23.24649 24.95788 36040 ft 525 kts 146°
2026-05-06 18:01 -23.27434 24.98337 35376 ft 525 kts 146°
2026-05-06 18:01 -23.30240 25.00907 34691 ft 526 kts 146°
2026-05-06 18:02 -23.33038 25.03471 33991 ft 527 kts 146°
2026-05-06 18:02 -23.35863 25.06061 33290 ft 528 kts 146°
2026-05-06 18:02 -23.38650 25.08619 32615 ft 526 kts 147°
2026-05-06 18:02 -23.41462 25.11202 31902 ft 522 kts 147°
2026-05-06 18:03 -23.44235 25.13753 31212 ft 517 kts 147°
2026-05-06 18:03 -23.46971 25.16270 30530 ft 512 kts 147°
2026-05-06 18:03 -23.49688 25.18770 29850 ft 507 kts 147°
2026-05-06 18:03 -23.52346 25.21217 29184 ft 502 kts 147°
2026-05-06 18:04 -23.55015 25.23675 28523 ft 498 kts 147°
2026-05-06 18:04 -23.57652 25.26105 27857 ft 494 kts 147°
2026-05-06 18:04 -23.60267 25.28517 27204 ft 489 kts 147°
2026-05-06 18:04 -23.62776 25.30994 26558 ft 489 kts 141°
2026-05-06 18:05 -23.65122 25.33676 25917 ft 486 kts 139°
2026-05-06 18:05 -23.67433 25.36353 25273 ft 481 kts 139°
2026-05-06 18:05 -23.69729 25.39010 24638 ft 476 kts 139°
2026-05-06 18:05 -23.71994 25.41631 24014 ft 470 kts 139°
2026-05-06 18:06 -23.74220 25.44208 23385 ft 466 kts 139°
2026-05-06 18:06 -23.76401 25.46733 22790 ft 460 kts 139°
2026-05-06 18:06 -23.78585 25.49262 22166 ft 454 kts 139°
2026-05-06 18:06 -23.80731 25.51749 21575 ft 448 kts 139°
2026-05-06 18:07 -23.82844 25.54198 20979 ft 440 kts 138°
2026-05-06 18:07 -23.84946 25.56636 20394 ft 429 kts 138°
2026-05-06 18:07 -23.86968 25.58985 19837 ft 417 kts 139°
2026-05-06 18:07 -23.88936 25.61269 19286 ft 408 kts 139°
2026-05-06 18:08 -23.90863 25.63507 18760 ft 398 kts 139°
2026-05-06 18:08 -23.92760 25.65708 18083 ft 393 kts 138°
2026-05-06 18:08 -23.94608 25.67855 17633 ft 385 kts 138°
2026-05-06 18:08 -23.96446 25.69987 17130 ft 387 kts 138°
2026-05-06 18:09 -23.98274 25.72109 16601 ft 383 kts 138°
2026-05-06 18:09 -24.00081 25.74208 16092 ft 377 kts 137°
2026-05-06 18:09 -24.01870 25.76290 15553 ft 367 kts 137°
2026-05-06 18:09 -24.03571 25.78274 15109 ft 349 kts 137°
2026-05-06 18:10 -24.05203 25.80176 14662 ft 335 kts 137°
2026-05-06 18:10 -24.06772 25.82006 14235 ft 321 kts 137°
2026-05-06 18:10 -24.08264 25.83744 13814 ft 310 kts 137°
2026-05-06 18:10 -24.09726 25.85448 13404 ft 299 kts 137°
2026-05-06 18:11 -24.11151 25.87109 13010 ft 291 kts 137°
2026-05-06 18:11 -24.12082 25.88192 12749 ft 292 kts 137°
2026-05-06 18:11 -24.13947 25.90364 12224 ft 285 kts 137°
2026-05-06 18:11 -24.15283 25.91923 11855 ft 276 kts 137°
2026-05-06 18:12 -24.16584 25.93424 11495 ft 270 kts 140°
2026-05-06 18:12 -24.18117 25.94601 11142 ft 265 kts 154°
2026-05-06 18:12 -24.19701 25.95582 10810 ft 264 kts 154°
2026-05-06 18:12 -24.21289 25.96578 10452 ft 260 kts 154°
2026-05-06 18:13 -24.22833 25.97548 10152 ft 253 kts 154°
2026-05-06 18:13 -24.24368 25.98513 9782 ft 250 kts 154°
2026-05-06 18:13 -24.25874 25.99460 9448 ft 247 kts 154°
2026-05-06 18:13 -24.27365 26.00397 9114 ft 245 kts 154°
2026-05-06 18:14 -24.28836 26.01323 8784 ft 243 kts 154°
2026-05-06 18:14 -24.30301 26.02246 8460 ft 241 kts 154°
2026-05-06 18:14 -24.31737 26.03150 8146 ft 241 kts 154°
2026-05-06 18:14 -24.33176 26.04059 7831 ft 234 kts 154°
2026-05-06 18:15 -24.34564 26.04937 7529 ft 223 kts 154°
2026-05-06 18:15 -24.35882 26.05771 7237 ft 214 kts 155°
2026-05-06 18:15 -24.37162 26.06560 6957 ft 212 kts 156°
2026-05-06 18:15 -24.38477 26.07334 6670 ft 212 kts 156°
2026-05-06 18:16 -24.39781 26.08102 6392 ft 211 kts 156°
2026-05-06 18:16 -24.41084 26.08869 6107 ft 210 kts 156°
2026-05-06 18:16 -24.42388 26.09637 5823 ft 209 kts 156°
2026-05-06 18:16 -24.43657 26.10370 5600 ft 201 kts 159°
2026-05-06 18:17 -24.44983 26.10628 5435 ft 183 kts 189°
2026-05-06 18:17 -24.46124 26.10165 5221 ft 173 kts 217°
2026-05-06 18:17 -24.46918 26.09209 5101 ft 167 kts 239°
2026-05-06 18:17 -24.47485 26.08088 5070 ft 167 kts 242°
2026-05-06 18:18 -24.48042 26.06956 5090 ft 168 kts 242°
2026-05-06 18:18 -24.48603 26.05824 5096 ft 168 kts 242°
2026-05-06 18:18 -24.49130 26.04762 5115 ft 146 kts 242°
2026-05-06 18:18 -24.49591 26.03832 5123 ft 135 kts 242°
2026-05-06 18:19 -24.50035 26.02936 5083 ft 131 kts 242°
2026-05-06 18:19 -24.50472 26.02054 4880 ft 130 kts 242°
2026-05-06 18:19 -24.50889 26.01211 4753 ft 128 kts 242°
2026-05-06 18:19 -24.51317 26.00346 4552 ft 126 kts 241°
2026-05-06 18:20 -24.51741 25.99489 4400 ft 130 kts 242°
2026-05-06 18:20 -24.52172 25.98612 4188 ft 129 kts 242°
2026-05-06 18:20 -24.52597 25.97758 3995 ft 128 kts 241°
2026-05-06 18:20 -24.53025 25.96888 3827 ft 128 kts 241°
2026-05-06 18:21 -24.53461 25.96022 3696 ft 130 kts 241°
2026-05-06 18:21 -24.53887 25.95162 3560 ft 130 kts 242°
2026-05-06 18:21 -24.54313 25.94287 3431 ft 127 kts 241°
2026-05-06 18:21 -24.54718 25.93477 3319 ft 112 kts 240°
2026-05-06 18:22 -24.55042 25.92822 3316 ft 79 kts 242°
2026-05-06 18:22 -24.55237 25.92429 3316 ft 29 kts 240°
2026-05-06 18:22 -24.55303 25.92293 3315 ft 7 kts 242°
2026-05-06 18:22 -24.55355 25.92273 3316 ft 10 kts 154°
2026-05-06 18:23 -24.55421 25.92313 3318 ft 10 kts 152°
2026-05-06 18:23 -24.55487 25.92351 3320 ft 7 kts 150°
2026-05-06 18:23 -24.55507 25.92364 3320 ft 0 kts 150°
2026-05-06 18:23 -24.55520 25.92375 3320 ft 7 kts 133°
2026-05-06 18:24 -24.55519 25.92439 3320 ft 10 kts 59°
2026-05-06 18:24 -24.55473 25.92525 3319 ft 15 kts 62°
2026-05-06 18:24 -24.55475 25.92594 3319 ft 7 kts 155°
2026-05-06 18:24 -24.55514 25.92616 3321 ft 4 kts 152°
2026-05-06 18:25 -24.55516 25.92617 3321 ft 0 kts 152°